[[{"header":{"parameterUnit":"m.s-1","parameterCategory":2,"la1":30.2991,"la2":30.254,"lo1":-89.0895,"lo2":-89.0444,"dy":0.0017,"dx":0.0017,"nx":28,"ny":28,"refTime":"2024-08-17T21:00:00:Z","depth":"0","parameterNumber":2,"parameterNumberName":"U-component_of_CURRENTS"},"data":[0,0,0,0,0,0,0,0,0,0,0,0,0,0,0,0,0,0,0,0,0,0,0,0,0,0,0,0,0,0,0,0,0,0,0,0,0,0,0,0,0,0,0,0,0,0,0,0,0,0,0,0,0,0,0,0,0,0,0.3856,0.3856,0,0.3832,0.3831,0.3831,0.3764,0.3763,0.3763,0.3762,0.3686,0.3685,0.3684,0,0,0,0,0,0,0,0,0,0,0,0,0,0.3873,0.3872,0.3856,0.3856,0.3857,0.3832,0.3831,0.383,0.3764,0.3763,0.3762,0.3761,0.3687,0.3685,0.3684,0,0,0,0,0,0,0,0,0,0,0,0,0,0.3853,0.3872,0.3856,0.3825,0.3823,0.3832,0.3831,0.383,0.3765,0.3763,0.3762,0.3761,0.3687,0.3685,0.3684,0.3699,0,0,0.3678,0.3677,0,0,0,0,0,0,0,0,0.3854,0.3852,0.3829,0.3827,0.3825,0.3805,0.381,0.3786,0.3765,0.378,0.3762,0.376,0.3726,0.3721,0.3712,0.3696,0.3692,0.3678,0.3677,0.3676,0.3676,0,0,0,0,0,0,0,0.3856,0.3853,0.384,0.383,0.3827,0.3823,0.3817,0.3805,0.3755,0.3779,0.3775,0.3783,0.3723,0.3714,0.3709,0.3691,0.3678,0.3677,0.3675,0.3675,0.3778,0.3782,0,0,0,0,0,0,0.3871,0.3854,0.3841,0.384,0.3843,0.3824,0.3818,0.3808,0.3756,0.375,0.3784,0.378,0.3717,0.3712,0.3707,0.3776,0.3676,0.3675,0.3674,0.3774,0.3779,0.3783,0,0,0,0,0,0,0.3871,0.3869,0.3842,0.3852,0.3849,0.3825,0.3815,0.3808,0.3811,0.3762,0.3752,0.3795,0.3716,0.3709,0.3723,0.377,0.3674,0.3672,0.377,0.3776,0.3781,0.388,0,0,0,0,0,0,0.3871,0.3869,0.3871,0.3853,0.385,0.3865,0.3816,0.3809,0.382,0.3814,0.3769,0.3759,0.3714,0.3727,0.3722,0.3766,0.3671,0.3765,0.3773,0.3779,0.3872,0.3888,0.3902,0,0,0,0,0,0.3871,0.3878,0.3871,0.387,0.3851,0.3868,0.3866,0.384,0.3822,0.3834,0.3813,0.3761,0.3769,0.3728,0.3721,0.3766,0.3762,0.377,0.3779,0.3865,0.3885,0.3902,0,0,0,0,0,0,0.3874,0.3872,0.3863,0.3864,0.3877,0.3859,0.3869,0.386,0.3852,0.3846,0.3795,0.3786,0.3825,0.3794,0.375,0.3826,0.3764,0.3772,0.3832,0.385,0.3865,0.3905,0.3669,0,0,0,0,0,0.3883,0.3889,0.3891,0.3894,0.3905,0.3894,0.39,0.3889,0.3882,0.3876,0.385,0.384,0.3856,0.3849,0.3852,0.3878,0.3895,0.3913,0.3928,0.3941,0.3976,0.4059,0.4085,0.3811,0.3811,0.3811,0,0,0.3887,0.3886,0.3889,0.3898,0.3899,0.3927,0.3892,0.3912,0.3944,0.3872,0.39,0.3892,0.3882,0.3918,0.3933,0.3892,0.4028,0.3952,0.3962,0.399,0.4071,0.4098,0.4121,0.3817,0.3816,0.3815,0,0,0.3903,0.3899,0.3916,0.3936,0.3958,0.396,0.3977,0.3979,0.399,0.4015,0.3998,0.4029,0.401,0.4035,0.404,0.415,0.4116,0.4147,0.4237,0.4317,0.434,0.436,0.4407,0.443,0.4141,0.4142,0.4142,0,0.3917,0.3921,0.3927,0.3956,0.3976,0.3984,0.4016,0.4044,0.4053,0.408,0.4036,0.4094,0.4076,0.4167,0.4206,0.4184,0.4212,0.4154,0.4336,0.4356,0.4375,0.4418,0.4443,0.4147,0.4147,0.4146,0.4146,0,0.3945,0.3961,0.3977,0.4014,0.4043,0.4073,0.4116,0.4153,0.4156,0.4176,0.4257,0.4253,0.4288,0.4298,0.4275,0.4418,0.4388,0.435,0.4281,0.4409,0.4446,0.447,0.4156,0.4154,0.4152,0.415,0,0,0.3945,0.3989,0.3994,0.4017,0.4074,0.4096,0.4178,0.4247,0.4304,0.4333,0.4412,0.4467,0.4474,0.449,0.4489,0.4559,0.4705,0.4518,0.4519,0.4551,0.4873,0.4701,0.4709,0.4694,0.4699,0.4704,0.4839,0,0.3967,0.4013,0.4037,0.4096,0.4126,0.4174,0.4244,0.4316,0.4364,0.4446,0.4508,0.4574,0.4549,0.457,0.4653,0.4702,0.4777,0.4672,0.4758,0.4761,0.4581,0.4735,0.4479,0.4566,0.4862,0.4866,0.4869,0,0.3978,0.4011,0.4059,0.4128,0.4148,0.4191,0.4296,0.436,0.4497,0.4542,0.4644,0.4686,0.4834,0.4769,0.495,0.4883,0.4906,0.4927,0.4931,0.4759,0.4635,0.4492,0.4598,0.4526,0.4906,0.4903,0.49,0,0.3948,0.4021,0.4051,0.4077,0.4166,0.4208,0.426,0.4381,0.446,0.4617,0.4691,0.4844,0.4928,0.5018,0.5071,0.5028,0.5238,0.5167,0.504,0.5026,0.4821,0.4779,0.4856,0.5305,0.5304,0.5304,0.5304,0,0.3943,0.3972,0.4038,0.4058,0.4119,0.4186,0.4269,0.4355,0.4504,0.4605,0.4741,0.4849,0.4999,0.5118,0.5146,0.5176,0.5302,0.5104,0.5072,0.4844,0.4805,0.4738,0.4704,0.5309,0.5308,0.5307,0.5306,0,0.3896,0.3935,0.3977,0.4066,0.4097,0.4135,0.4261,0.4334,0.4481,0.4627,0.4691,0.4909,0.504,0.5153,0.5294,0.5248,0.5142,0.526,0.4963,0.4893,0.4638,0.4616,0.4495,0.4378,0.5145,0.5141,0.5139,0,0.3863,0.388,0.3961,0.3989,0.4027,0.4098,0.4156,0.4303,0.4384,0.4636,0.4705,0.4904,0.497,0.512,0.509,0.511,0.5034,0.4889,0.4752,0.4633,0.459,0.4434,0.4335,0.453,0.4523,0.4517,0.4512,0,0.3818,0.3845,0.3881,0.3939,0.399,0.4049,0.4138,0.4195,0.4368,0.4488,0.4635,0.4709,0.4828,0.4721,0.4747,0.4732,0.4636,0.4758,0.4739,0.4216,0.3953,0.3818,0.4425,0.4458,0.4463,0.4467,0.447,0.4472,0.3776,0.3785,0.3832,0.3868,0.3927,0.3961,0.393,0.4033,0.4107,0.4176,0.4399,0.4382,0.4418,0.438,0.4352,0.4189,0.422,0.4062,0.4081,0.3964,0.3735,0.4201,0.4118,0.4121,0.4124,0.4127,0.4129,0,0.3706,0.3726,0.3764,0.3781,0.3769,0.3841,0.3881,0.3798,0.3761,0.3877,0.3917,0.3906,0.3772,0.3812,0.3721,0.3576,0.3421,0.3507,0.3284,0.3249,0.3767,0.3625,0.3301,0.3301,0.3301,0.3302,0.3302,0.3302,0.3681,0.3663,0.3666,0.3597,0.3596,0.3486,0.3438,0.3353,0.3356,0.3255,0.3216,0.328,0.348,0.3459,0.3317,0.3228,0.3063,0.2827,0.2937,0.3363,0.3417,0.3469,0.3332,0.2952,0.2952,0.224,0.2235,0.2231]},{"header":{"parameterUnit":"m.s-1","parameterCategory":2,"la1":30.2991,"la2":30.254,"lo1":-89.0895,"lo2":-89.0444,"dy":0.0017,"dx":0.0017,"nx":28,"ny":28,"refTime":"2024-08-17T21:00:00:Z","depth":"0","parameterNumber":3,"parameterNumberName":"V-component_of_CURRENTS"},"data":[0,0,0,0,0,0,0,0,0,0,0,0,0,0,0,0,0,0,0,0,0,0,0,0,0,0,0,0,0,0,0,0,0,0,0,0,0,0,0,0,0,0,0,0,0,0,0,0,0,0,0,0,0,0,0,0,0,0,0.0321,0.032,0,0.0274,0.0273,0.0273,0.0232,0.0232,0.0231,0.0231,0.0157,0.0155,0.0154,0,0,0,0,0,0,0,0,0,0,0,0,0,0.0296,0.0297,0.0321,0.032,0.032,0.0274,0.0273,0.0272,0.0232,0.0232,0.0231,0.0231,0.0158,0.0156,0.0154,0,0,0,0,0,0,0,0,0,0,0,0,0,0.0282,0.0297,0.0321,0.0296,0.0293,0.0274,0.0273,0.0272,0.0232,0.0232,0.0231,0.0231,0.0158,0.0156,0.0153,0.0145,0,0,0.0145,0.0144,0,0,0,0,0,0,0,0,0.0283,0.0283,0.03,0.0297,0.0295,0.026,0.0237,0.0229,0.0232,0.0253,0.0231,0.0231,0.0191,0.0185,0.0175,0.0142,0.0139,0.0145,0.0144,0.0142,0.0142,0,0,0,0,0,0,0,0.0284,0.0284,0.03,0.03,0.0296,0.026,0.0258,0.0235,0.0223,0.0251,0.0249,0.0247,0.0189,0.0178,0.0173,0.0138,0.0145,0.0143,0.0141,0.014,0.0102,0.0102,0,0,0,0,0,0,0.0299,0.0286,0.0302,0.0299,0.029,0.0261,0.0259,0.027,0.0223,0.0217,0.0247,0.0245,0.0182,0.0176,0.017,0.0186,0.0142,0.014,0.0139,0.0101,0.0102,0.0103,0,0,0,0,0,0,0.0299,0.0301,0.0304,0.0292,0.029,0.0263,0.0275,0.0269,0.0263,0.0221,0.0213,0.0248,0.0182,0.0174,0.0157,0.0182,0.0139,0.0137,0.0101,0.0102,0.0102,0.0199,0,0,0,0,0,0,0.0298,0.0302,0.0311,0.0293,0.0291,0.0308,0.0275,0.0269,0.0264,0.0261,0.0219,0.0212,0.0181,0.0161,0.0155,0.0177,0.0135,0.01,0.0101,0.0102,0.0196,0.0203,0.021,0,0,0,0,0,0.0298,0.0321,0.0312,0.0313,0.0306,0.0309,0.0305,0.0281,0.0264,0.0272,0.0239,0.0213,0.0163,0.016,0.0152,0.0174,0.01,0.0101,0.0102,0.0192,0.0202,0.021,0,0,0,0,0,0,0.0312,0.0319,0.0308,0.033,0.0325,0.0304,0.0307,0.029,0.0269,0.0263,0.0219,0.021,0.0202,0.0173,0.0171,0.0164,0.0127,0.0127,0.0199,0.0207,0.0214,0.0257,0.0132,0,0,0,0,0,0.0321,0.0341,0.0335,0.0351,0.0353,0.033,0.0326,0.0313,0.0294,0.0284,0.0255,0.0222,0.0199,0.0192,0.0162,0.0164,0.0146,0.0171,0.0179,0.0185,0.0213,0.0204,0.0214,0.0107,0.0107,0.0107,0,0,0.033,0.0336,0.0345,0.0355,0.0347,0.0366,0.0327,0.0332,0.0347,0.0279,0.0286,0.0244,0.0202,0.02,0.0195,0.0182,0.0203,0.0187,0.0193,0.0218,0.0207,0.0217,0.0227,0.0107,0.0107,0.0107,0,0,0.0364,0.0365,0.0395,0.0399,0.04,0.0391,0.0398,0.0384,0.0379,0.0375,0.0331,0.031,0.0272,0.0257,0.0241,0.0272,0.0236,0.0256,0.0338,0.0328,0.0338,0.0346,0.0328,0.0334,0.0268,0.0268,0.0268,0,0.0371,0.0414,0.0401,0.0431,0.0445,0.0411,0.0447,0.0439,0.0419,0.0427,0.039,0.035,0.0305,0.0321,0.0328,0.0293,0.0278,0.031,0.0341,0.0349,0.0355,0.0335,0.034,0.0273,0.0272,0.0272,0.0271,0,0.0432,0.0462,0.0482,0.0513,0.0523,0.0549,0.0543,0.055,0.0531,0.052,0.0522,0.0461,0.0447,0.0421,0.0383,0.0414,0.0384,0.0346,0.0326,0.0373,0.0347,0.035,0.028,0.0278,0.0277,0.0275,0,0,0.0467,0.0516,0.0526,0.056,0.0574,0.0595,0.0624,0.0652,0.069,0.0648,0.0697,0.0634,0.0603,0.0585,0.0533,0.0523,0.0538,0.0467,0.0464,0.0463,0.0518,0.0465,0.0463,0.0509,0.051,0.0511,0.0478,0,0.0523,0.0604,0.0611,0.0685,0.0728,0.0718,0.0758,0.0772,0.077,0.0804,0.0751,0.0764,0.0667,0.0671,0.0643,0.0574,0.0555,0.0551,0.0462,0.0459,0.0419,0.0469,0.0452,0.0419,0.0481,0.0482,0.0482,0,0.059,0.0639,0.0726,0.0794,0.0814,0.085,0.092,0.0951,0.0978,0.0979,0.0975,0.0934,0.0923,0.0829,0.0742,0.0746,0.0648,0.0577,0.0573,0.0501,0.0415,0.0382,0.0423,0.0273,0.0487,0.0487,0.0487,0,0.0643,0.0723,0.0802,0.0825,0.0891,0.0934,0.097,0.1008,0.1069,0.1105,0.1157,0.1103,0.1114,0.0989,0.0823,0.0797,0.0716,0.0658,0.0513,0.0507,0.0466,0.0455,0.0367,0.0597,0.0597,0.0597,0.0597,0,0.0711,0.0774,0.0839,0.0884,0.099,0.1006,0.112,0.1144,0.1221,0.1333,0.1262,0.134,0.1159,0.1082,0.0897,0.0724,0.0768,0.0551,0.0507,0.0496,0.0488,0.033,0.0238,0.0596,0.0596,0.0596,0.0596,0,0.0763,0.0802,0.0898,0.0985,0.102,0.1098,0.1223,0.1313,0.1366,0.1518,0.1549,0.1541,0.1455,0.1233,0.1042,0.0845,0.0561,0.0575,0.0566,0.0522,0.0252,0.0166,0.0027,-0.004,0.044,0.0439,0.0438,0,0.0798,0.0857,0.0974,0.1043,0.1089,0.1205,0.1299,0.1378,0.1494,0.1656,0.1752,0.1722,0.1722,0.1398,0.1039,0.0707,0.0539,0.0471,0.0414,0.0258,0.013,0.0062,0.0012,0.0391,0.039,0.0388,0.0387,0,0.0869,0.0911,0.0991,0.1132,0.1241,0.1379,0.1524,0.1639,0.1777,0.1911,0.2072,0.2085,0.1794,0.1466,0.0994,0.0752,0.0363,0.0438,0.0288,0.0106,0.0018,-0.0075,0.038,0.0377,0.0378,0.0379,0.038,0.038,0.0921,0.0988,0.1097,0.1232,0.1366,0.155,0.1679,0.1855,0.206,0.226,0.227,0.2298,0.184,0.1207,0.087,0.0275,0.0285,0.0094,0.0009,-0.0039,-0.0121,0.0308,0.0242,0.0243,0.0243,0.0243,0.0243,0,0.0982,0.1063,0.1191,0.1361,0.1522,0.1583,0.1831,0.1979,0.2231,0.2366,0.2467,0.225,0.168,0.1121,0.0327,-0.0082,-0.022,-0.0291,-0.0381,-0.0407,-0.0011,-0.0031,-0.0172,-0.0172,-0.0171,-0.0171,-0.0171,-0.0171,0.1018,0.1138,0.1205,0.1462,0.1593,0.182,0.1966,0.2183,0.233,0.2485,0.2482,0.2447,0.2045,0.0656,-0.0255,-0.0458,-0.0677,-0.0777,-0.0869,-0.0602,-0.0572,-0.0544,-0.0583,-0.0837,-0.0838,-0.1218,-0.1222,-0.1226]}],[{"header":{"parameterUnit":"m.s-1","parameterCategory":2,"la1":30.2991,"la2":30.254,"lo1":-89.0895,"lo2":-89.0444,"dy":0.0017,"dx":0.0017,"nx":28,"ny":28,"refTime":"2024-08-17T21:00:00:Z","depth":"2","parameterNumber":2,"parameterNumberName":"U-component_of_CURRENTS"},"data":[0,0,0,0,0,0,0,0,0,0,0,0,0,0,0,0,0,0,0,0,0,0,0,0,0,0,0,0,0,0,0,0,0,0,0,0,0,0,0,0,0,0,0,0,0,0,0,0,0,0,0,0,0,0,0,0,0,0,0.312,0.312,0,0.3169,0.3169,0.317,0.3165,0.3165,0.3164,0.3163,0.3134,0.3134,0.3133,0,0,0,0,0,0,0,0,0,0,0,0,0,0.3074,0.3074,0.312,0.312,0.3121,0.3169,0.3169,0.317,0.3165,0.3165,0.3164,0.3163,0.3134,0.3134,0.3133,0,0,0,0,0,0,0,0,0,0,0,0,0,0.3104,0.3074,0.3119,0.3126,0.3127,0.3169,0.3169,0.317,0.3166,0.3165,0.3164,0.3163,0.3134,0.3134,0.3133,0.315,0,0,0.3132,0.3132,0,0,0,0,0,0,0,0,0.3102,0.3105,0.3124,0.3125,0.3127,0.3161,0.3142,0.316,0.3166,0.3149,0.3163,0.3162,0.3137,0.3137,0.3147,0.3149,0.3148,0.3132,0.3132,0.3132,0.3132,0,0,0,0,0,0,0,0.31,0.3104,0.3138,0.3125,0.3126,0.3144,0.3146,0.3146,0.3145,0.3151,0.3151,0.3159,0.3137,0.3148,0.3146,0.3147,0.3132,0.3132,0.3132,0.3132,0.3219,0.3221,0,0,0,0,0,0,0.3095,0.3102,0.3136,0.3139,0.3113,0.3145,0.3148,0.315,0.3147,0.3147,0.316,0.3158,0.3148,0.3147,0.3145,0.3211,0.3132,0.3132,0.3132,0.3217,0.322,0.3222,0,0,0,0,0,0,0.3094,0.3098,0.3134,0.3123,0.3129,0.3147,0.3149,0.3151,0.3175,0.3155,0.3153,0.3182,0.3148,0.3145,0.3163,0.3208,0.3132,0.3131,0.3214,0.3217,0.3221,0.3313,0,0,0,0,0,0,0.3092,0.3097,0.3107,0.3122,0.3129,0.3161,0.315,0.3153,0.3181,0.318,0.3173,0.3169,0.3147,0.3164,0.3163,0.3206,0.3131,0.321,0.3215,0.322,0.3307,0.3319,0.333,0,0,0,0,0,0.309,0.3103,0.3107,0.3112,0.3139,0.3162,0.3168,0.3176,0.3183,0.3194,0.32,0.3169,0.3193,0.3166,0.3164,0.3208,0.3208,0.3214,0.3219,0.3301,0.3317,0.333,0,0,0,0,0,0,0.3088,0.3104,0.3109,0.3126,0.3145,0.3162,0.3186,0.3192,0.3209,0.3215,0.3193,0.319,0.3232,0.3208,0.3178,0.325,0.32,0.3205,0.3263,0.3277,0.3288,0.333,0.3131,0,0,0,0,0,0.3094,0.3109,0.3124,0.3143,0.3158,0.3178,0.3195,0.32,0.3214,0.3222,0.3221,0.323,0.3255,0.3253,0.3267,0.3293,0.3304,0.3324,0.3336,0.3346,0.3381,0.3452,0.3473,0.3241,0.3241,0.3241,0,0,0.3099,0.3113,0.3121,0.3145,0.3168,0.3198,0.3186,0.3218,0.3255,0.3216,0.3269,0.3275,0.3276,0.3317,0.3333,0.3297,0.3412,0.3353,0.3361,0.3392,0.346,0.3483,0.3503,0.3245,0.3244,0.3243,0,0,0.312,0.3133,0.3155,0.3176,0.3212,0.3226,0.3239,0.3268,0.3294,0.333,0.3337,0.3378,0.3379,0.3413,0.3424,0.3511,0.3483,0.3503,0.3581,0.3649,0.3669,0.3687,0.3703,0.3722,0.3495,0.3495,0.3495,0,0.3134,0.3153,0.3166,0.3199,0.3224,0.3243,0.3276,0.3314,0.3345,0.3381,0.3354,0.3437,0.3438,0.3523,0.3561,0.3541,0.3553,0.3521,0.3665,0.3683,0.37,0.3713,0.3733,0.35,0.3499,0.3499,0.3498,0,0.3166,0.3191,0.3213,0.3257,0.3285,0.3318,0.3363,0.3405,0.3431,0.3464,0.355,0.3567,0.3615,0.3626,0.3621,0.3747,0.3707,0.3681,0.3628,0.3729,0.3736,0.3754,0.3507,0.3506,0.3504,0.3503,0,0,0.317,0.3225,0.3229,0.3253,0.3317,0.3334,0.342,0.3489,0.3552,0.3595,0.368,0.3753,0.3771,0.3791,0.3798,0.3862,0.3985,0.3828,0.3829,0.3844,0.4105,0.3965,0.397,0.398,0.3984,0.3988,0.4052,0,0.3195,0.3241,0.327,0.3324,0.3354,0.3406,0.3481,0.3552,0.3611,0.3699,0.3765,0.3847,0.3831,0.3866,0.3935,0.3997,0.4043,0.3968,0.4009,0.401,0.3872,0.3992,0.3671,0.3693,0.407,0.4073,0.4075,0,0.3207,0.3238,0.3286,0.3353,0.3374,0.3424,0.3531,0.3596,0.3737,0.3788,0.3886,0.3939,0.4084,0.4032,0.4185,0.4136,0.4141,0.4159,0.4161,0.402,0.3906,0.366,0.3712,0.4106,0.4103,0.4101,0.4099,0,0.3165,0.3239,0.3272,0.3296,0.3388,0.3442,0.3504,0.3632,0.3716,0.3867,0.3944,0.4079,0.4169,0.4236,0.4293,0.4255,0.4425,0.4361,0.4225,0.4212,0.3946,0.3902,0.4452,0.4452,0.4452,0.4452,0.4452,0,0.3149,0.3174,0.3263,0.3276,0.3343,0.3426,0.3524,0.3604,0.3771,0.3866,0.3997,0.4091,0.4234,0.4335,0.4349,0.4359,0.4467,0.4279,0.4245,0.3962,0.3922,0.4284,0.4264,0.4454,0.4454,0.4453,0.4453,0,0.3083,0.3132,0.3186,0.3291,0.3319,0.3374,0.3526,0.3612,0.3769,0.3904,0.3971,0.4166,0.4275,0.4369,0.4477,0.4419,0.4444,0.4396,0.4036,0.3958,0.4161,0.4145,0.4267,0.4263,0.426,0.4257,0.4255,0,0.3045,0.3063,0.3171,0.3205,0.3256,0.335,0.3421,0.3586,0.3672,0.3913,0.3967,0.4156,0.4198,0.4317,0.4284,0.4276,0.4367,0.3947,0.3824,0.4202,0.4156,0.4145,0.4133,0.3493,0.3485,0.3478,0.3472,0,0.2986,0.304,0.3078,0.3144,0.3217,0.3287,0.3393,0.3452,0.3635,0.374,0.3855,0.3927,0.4043,0.3895,0.3912,0.3862,0.3933,0.3804,0.4337,0.3584,0.3476,0.3429,0.3443,0.3411,0.3418,0.3422,0.3425,0.3428,0.2948,0.2969,0.3025,0.3073,0.3137,0.3178,0.3176,0.3273,0.3336,0.3422,0.3601,0.3584,0.3636,0.3486,0.338,0.3318,0.3572,0.3405,0.3425,0.3452,0.3346,0.3238,0.3107,0.3111,0.3114,0.3117,0.312,0,0.2872,0.2906,0.2949,0.2979,0.2974,0.307,0.3111,0.3052,0.3002,0.3134,0.3174,0.294,0.2839,0.2903,0.2703,0.2688,0.2661,0.2579,0.2516,0.2579,0.2635,0.2485,0.2018,0.2015,0.2011,0.2008,0,0,0.2838,0.2825,0.2836,0.2784,0.2815,0.274,0.2723,0.2645,0.2645,0.256,0.2543,0.2759,0.2833,0.2401,0.2337,0.2138,0.2345,0.2059,0.295,0.2941,0.2992,0.3125,0.2968,0,0,0,0,0]},{"header":{"parameterUnit":"m.s-1","parameterCategory":2,"la1":30.2991,"la2":30.254,"lo1":-89.0895,"lo2":-89.0444,"dy":0.0017,"dx":0.0017,"nx":28,"ny":28,"refTime":"2024-08-17T21:00:00:Z","depth":"2","parameterNumber":3,"parameterNumberName":"V-component_of_CURRENTS"},"data":[0,0,0,0,0,0,0,0,0,0,0,0,0,0,0,0,0,0,0,0,0,0,0,0,0,0,0,0,0,0,0,0,0,0,0,0,0,0,0,0,0,0,0,0,0,0,0,0,0,0,0,0,0,0,0,0,0,0,0.0167,0.0166,0,0.0132,0.0132,0.0131,0.0106,0.0105,0.0105,0.0105,0.0045,0.0043,0.0042,0,0,0,0,0,0,0,0,0,0,0,0,0,0.0144,0.0145,0.0167,0.0166,0.0166,0.0132,0.0132,0.0131,0.0106,0.0105,0.0105,0.0105,0.0045,0.0044,0.0042,0,0,0,0,0,0,0,0,0,0,0,0,0,0.0136,0.0145,0.0167,0.015,0.0148,0.0132,0.0132,0.0131,0.0106,0.0105,0.0105,0.0105,0.0046,0.0044,0.0042,0.0034,0,0,0.0035,0.0034,0,0,0,0,0,0,0,0,0.0136,0.0137,0.0152,0.0151,0.0149,0.0123,0.0102,0.0097,0.0106,0.0121,0.0105,0.0105,0.0069,0.0065,0.0059,0.0031,0.0028,0.0035,0.0033,0.0033,0.0032,0,0,0,0,0,0,0,0.0137,0.0137,0.0152,0.0152,0.015,0.0121,0.012,0.01,0.0096,0.012,0.0118,0.0115,0.0068,0.0061,0.0057,0.0027,0.0035,0.0033,0.0032,0.0031,-0.001,-0.001,0,0,0,0,0,0,0.0146,0.0139,0.0154,0.0151,0.0142,0.0122,0.0121,0.0131,0.0097,0.0092,0.0115,0.0114,0.0065,0.006,0.0055,0.0064,0.0033,0.0031,0.0029,-0.001,-0.001,-0.001,0,0,0,0,0,0,0.0146,0.0149,0.0155,0.0143,0.0142,0.0123,0.0135,0.0131,0.0129,0.0094,0.0088,0.0118,0.0064,0.0058,0.0045,0.006,0.003,0.0028,-0.0011,-0.001,-0.001,0.0068,0,0,0,0,0,0,0.0146,0.0149,0.0157,0.0145,0.0144,0.0158,0.0135,0.013,0.0127,0.0125,0.0094,0.0088,0.0064,0.0048,0.0043,0.0057,0.0026,-0.0011,-0.001,-0.001,0.0065,0.0071,0.0076,0,0,0,0,0,0.0146,0.0166,0.0158,0.016,0.0157,0.0159,0.0156,0.0139,0.0128,0.0135,0.011,0.0089,0.0046,0.0047,0.004,0.0054,-0.0011,-0.001,-0.001,0.0063,0.007,0.0076,0,0,0,0,0,0,0.0159,0.0165,0.0156,0.0177,0.0171,0.0155,0.0159,0.0146,0.0132,0.0129,0.0094,0.0087,0.0078,0.0053,0.0055,0.0041,0.0013,0.0012,0.0071,0.0077,0.0083,0.0118,0.0024,0,0,0,0,0,0.0166,0.0185,0.0178,0.0193,0.0194,0.0176,0.0173,0.0164,0.015,0.0144,0.0122,0.0095,0.0074,0.0067,0.0042,0.004,0.0014,0.0042,0.0047,0.0052,0.0075,0.0047,0.0053,-0.0008,-0.0008,-0.0008,0,0,0.0173,0.0179,0.0188,0.0197,0.0191,0.0206,0.0175,0.0179,0.0192,0.0139,0.0147,0.0112,0.0076,0.0071,0.0065,0.0055,0.0052,0.0053,0.0057,0.0078,0.0049,0.0055,0.006,-0.0008,-0.0008,-0.0008,0,0,0.0204,0.0206,0.0232,0.0235,0.0235,0.0227,0.0233,0.0222,0.0219,0.0217,0.0181,0.0162,0.013,0.0114,0.01,0.0121,0.0078,0.0103,0.0166,0.0139,0.0145,0.0149,0.0113,0.0113,0.0111,0.0111,0.0111,0,0.021,0.0248,0.0237,0.0263,0.0275,0.0244,0.0275,0.0267,0.0252,0.0258,0.023,0.0191,0.0156,0.0161,0.0165,0.0136,0.0108,0.0147,0.0149,0.0152,0.0156,0.0117,0.0117,0.0115,0.0114,0.0114,0.0114,0,0.0263,0.029,0.0306,0.0333,0.0341,0.0363,0.0355,0.036,0.0345,0.0334,0.033,0.028,0.0262,0.024,0.021,0.0218,0.0185,0.0156,0.0139,0.0167,0.0124,0.0122,0.012,0.0119,0.0118,0.0117,0,0,0.0295,0.0337,0.0345,0.0376,0.0385,0.0405,0.0426,0.0446,0.0475,0.0436,0.0469,0.0416,0.0383,0.0365,0.0319,0.0297,0.0282,0.0245,0.0242,0.0221,0.0216,0.0179,0.0173,0.0252,0.0252,0.0253,0.0172,0,0.0343,0.0413,0.0419,0.0484,0.0521,0.0511,0.0543,0.055,0.0543,0.0563,0.0508,0.0516,0.0432,0.0433,0.0392,0.0323,0.0284,0.0307,0.0182,0.0178,0.0152,0.0172,0.0196,0.0126,0.017,0.017,0.017,0,0.0401,0.0443,0.0521,0.0581,0.0598,0.0629,0.0686,0.0712,0.0718,0.0713,0.0693,0.0649,0.062,0.0543,0.0427,0.0445,0.0339,0.0269,0.0264,0.0209,0.014,0.0105,0.0121,0.0166,0.0167,0.0167,0.0167,0,0.0448,0.0518,0.0589,0.0609,0.0666,0.0705,0.0737,0.076,0.0816,0.0821,0.0858,0.078,0.0776,0.0638,0.0479,0.0458,0.0344,0.0293,0.0153,0.0148,0.0135,0.0129,0.0203,0.0203,0.0203,0.0203,0.0203,0,0.0507,0.0562,0.0622,0.0663,0.076,0.0774,0.0876,0.089,0.0947,0.1035,0.0948,0.0992,0.0804,0.071,0.053,0.0344,0.0373,0.0177,0.0133,0.016,0.0157,0.0168,0.0165,0.02,0.0201,0.0201,0.0202,0,0.0551,0.0586,0.0676,0.0754,0.0787,0.0861,0.0979,0.1058,0.1091,0.1206,0.1225,0.1169,0.1046,0.083,0.0618,0.0435,0.0247,0.0163,0.0202,0.0165,0.0051,0.0053,0.001,0.0009,0.0007,0.0006,0.0005,0,0.0582,0.0634,0.0747,0.0815,0.0858,0.0969,0.1057,0.1124,0.1221,0.1321,0.1389,0.1313,0.1257,0.0916,0.0603,0.0284,0.0233,0.0083,0.0045,0.0074,0.0035,0.004,0.0044,0.0048,0.0048,0.0047,0.0047,0,0.0644,0.0686,0.0761,0.0898,0.1004,0.1139,0.1266,0.1364,0.1469,0.1548,0.163,0.1595,0.1298,0.0984,0.0551,0.0331,0.0136,0.0061,0.0097,0.0095,0.0104,0.0068,0.0072,0.0042,0.0043,0.0043,0.0043,0.0044,0.0693,0.0757,0.086,0.0994,0.1123,0.1294,0.1409,0.1541,0.169,0.1817,0.1787,0.1728,0.1397,0.084,0.0475,0.0099,0.0116,-0.0038,-0.0034,-0.0029,-0.0009,-0.0003,-0.0081,-0.0082,-0.0082,-0.0082,-0.0082,0,0.0753,0.083,0.0951,0.1117,0.1265,0.1332,0.1543,0.1645,0.1804,0.19,0.1936,0.161,0.1258,0.0872,0.0325,-0.0011,-0.0032,-0.0135,-0.0082,-0.0074,-0.0069,-0.0049,-0.0133,-0.0134,-0.0135,-0.0136,0,0,0.0788,0.0903,0.0965,0.1207,0.1334,0.1533,0.1657,0.1788,0.1881,0.1942,0.1914,0.1842,0.1377,0.0966,0.0515,0.0196,0.0134,0.0122,0.0199,0.0323,0.0333,0.0022,0.0065,0,0,0,0,0]}],[{"header":{"parameterUnit":"m.s-1","parameterCategory":2,"la1":30.2991,"la2":30.254,"lo1":-89.0895,"lo2":-89.0444,"dy":0.0017,"dx":0.0017,"nx":28,"ny":28,"refTime":"2024-08-17T21:00:00:Z","depth":"4","parameterNumber":2,"parameterNumberName":"U-component_of_CURRENTS"},"data":[0,0,0,0,0,0,0,0,0,0,0,0,0,0,0,0,0,0,0,0,0,0,0,0,0,0,0,0,0,0,0,0,0,0,0,0,0,0,0,0,0,0,0,0,0,0,0,0,0,0,0,0,0,0,0,0,0,0,0.1841,0.1842,0,0.1929,0.1929,0.193,0.2018,0.202,0.2021,0.2022,0.2124,0.2125,0.2127,0,0,0,0,0,0,0,0,0,0,0,0,0,0.1737,0.1738,0.184,0.1842,0.1843,0.1928,0.1929,0.1931,0.2018,0.202,0.2021,0.2023,0.2123,0.2125,0.2127,0,0,0,0,0,0,0,0,0,0,0,0,0,0.1798,0.1739,0.184,0.1898,0.1904,0.1928,0.193,0.1931,0.2018,0.202,0.2022,0.2023,0.2123,0.2125,0.2127,0.2101,0,0,0.2134,0.2135,0,0,0,0,0,0,0,0,0.1794,0.1801,0.1888,0.1894,0.1901,0.1966,0.1931,0.1989,0.2017,0.1973,0.2022,0.2024,0.2072,0.2078,0.2088,0.2106,0.211,0.2134,0.2135,0.2136,0.2137,0,0,0,0,0,0,0,0.179,0.1798,0.1874,0.189,0.1897,0.1916,0.1927,0.1942,0.2009,0.1977,0.1984,0.1996,0.2076,0.2086,0.2091,0.2112,0.2134,0.2136,0.2137,0.2138,0.2241,0.2242,0,0,0,0,0,0,0.1781,0.1794,0.1871,0.1877,0.1853,0.1916,0.1928,0.1942,0.2009,0.2021,0.1994,0.1999,0.2081,0.2088,0.2095,0.2185,0.2136,0.2138,0.214,0.224,0.2241,0.2243,0,0,0,0,0,0,0.1778,0.1787,0.1867,0.1838,0.185,0.1916,0.1931,0.1943,0.1999,0.2022,0.2035,0.2044,0.2083,0.2092,0.2153,0.2185,0.2139,0.2141,0.2238,0.224,0.2242,0.2289,0,0,0,0,0,0,0.1775,0.1785,0.1812,0.1838,0.1852,0.1909,0.1929,0.1943,0.2001,0.201,0.2068,0.2077,0.2085,0.215,0.2155,0.2187,0.2143,0.2236,0.2239,0.2242,0.2286,0.2292,0.2298,0,0,0,0,0,0.1771,0.1793,0.1812,0.1823,0.1879,0.191,0.192,0.1971,0.2002,0.2029,0.2076,0.2077,0.217,0.2153,0.2159,0.2192,0.2235,0.2238,0.2241,0.2283,0.2291,0.2298,0,0,0,0,0,0,0.1768,0.1805,0.1827,0.1862,0.1897,0.1927,0.1964,0.1992,0.2048,0.2075,0.2095,0.2107,0.2174,0.2174,0.2154,0.223,0.2202,0.2207,0.2232,0.224,0.2246,0.2275,0.2145,0,0,0,0,0,0.1775,0.1805,0.1837,0.1872,0.1892,0.1935,0.1963,0.1997,0.2039,0.2069,0.2105,0.2146,0.2181,0.2207,0.2235,0.2272,0.2288,0.2297,0.2303,0.2309,0.2337,0.2383,0.2396,0.2253,0.2253,0.2253,0,0,0.1785,0.1811,0.183,0.1875,0.191,0.1943,0.1958,0.2014,0.2053,0.2068,0.2146,0.2174,0.2198,0.2249,0.2277,0.2259,0.2355,0.2313,0.2317,0.2344,0.2388,0.2402,0.2414,0.2255,0.2255,0.2255,0,0,0.1802,0.1843,0.187,0.1901,0.1958,0.1981,0.2004,0.2054,0.2096,0.2156,0.2184,0.2242,0.2284,0.2315,0.2332,0.2389,0.239,0.2391,0.2445,0.2488,0.25,0.2512,0.2537,0.255,0.2389,0.2389,0.2389,0,0.1812,0.185,0.1884,0.1917,0.1948,0.2001,0.2033,0.2078,0.2145,0.2182,0.2194,0.2294,0.2319,0.2384,0.2414,0.2406,0.2425,0.2411,0.2497,0.2508,0.2519,0.2543,0.2557,0.2392,0.2392,0.2391,0.2391,0,0.1841,0.1884,0.1907,0.1963,0.1998,0.204,0.2092,0.2148,0.2201,0.2243,0.2334,0.2373,0.2435,0.2445,0.2454,0.2539,0.2525,0.2502,0.2477,0.2536,0.2557,0.2571,0.2396,0.2395,0.2394,0.2393,0,0,0.1814,0.1906,0.1918,0.1947,0.2026,0.2049,0.2127,0.2196,0.2261,0.2332,0.2408,0.2484,0.2523,0.2547,0.2563,0.2609,0.2697,0.2599,0.26,0.2625,0.279,0.2606,0.2603,0.2689,0.2692,0.2694,0.2769,0,0.1826,0.1886,0.1933,0.1993,0.2021,0.2092,0.2158,0.2236,0.2307,0.2396,0.2464,0.2549,0.2553,0.26,0.2649,0.2701,0.2739,0.2679,0.2731,0.2733,0.2562,0.2615,0.2703,0.2779,0.2783,0.2785,0.2786,0,0.1828,0.1867,0.1926,0.2005,0.2027,0.2084,0.219,0.2257,0.2392,0.2455,0.2553,0.2611,0.2725,0.2703,0.2825,0.2789,0.2806,0.2826,0.2828,0.2656,0.2574,0.2712,0.2811,0.2809,0.2807,0.2806,0.2804,0,0.1769,0.1855,0.1901,0.1929,0.2033,0.2088,0.2161,0.2288,0.2356,0.2513,0.2589,0.2704,0.2794,0.2844,0.2903,0.288,0.3008,0.2967,0.281,0.2797,0.292,0.2907,0.3037,0.3037,0.3037,0.3037,0.3037,0,0.1736,0.1773,0.1889,0.1911,0.1981,0.207,0.2172,0.2263,0.2407,0.2494,0.2629,0.271,0.2842,0.292,0.2938,0.2919,0.3035,0.284,0.2811,0.2934,0.2923,0.2928,0.2915,0.304,0.3039,0.3039,0.3038,0,0.1654,0.1736,0.1791,0.1913,0.1955,0.2013,0.2171,0.223,0.2401,0.252,0.2581,0.2759,0.2868,0.2947,0.3042,0.2954,0.2955,0.2908,0.3048,0.3022,0.2707,0.2695,0.2746,0.2741,0.2736,0.2732,0.2728,0,0.1615,0.1636,0.1772,0.1803,0.1865,0.1972,0.2032,0.2208,0.2273,0.2521,0.2554,0.2736,0.2829,0.282,0.2915,0.2919,0.2879,0.2847,0.2771,0.2715,0.2682,0.2677,0.2672,0.2721,0.2719,0.2718,0.2717,0,0.1522,0.1594,0.164,0.171,0.178,0.1843,0.1955,0.2001,0.2201,0.2376,0.2476,0.2541,0.2654,0.2717,0.2737,0.2732,0.2853,0.2796,0.2805,0.2733,0.2684,0.2655,0.2656,0.27,0.2703,0.2704,0.2705,0,0.1462,0.1472,0.1546,0.1593,0.167,0.1692,0.1774,0.1859,0.1961,0.2235,0.2264,0.246,0.2632,0.262,0.2641,0.2624,0.2582,0.2476,0.2501,0.2521,0.2409,0.2312,0.2203,0,0,0,0,0,0.139,0.1382,0.1409,0.1461,0.1528,0.1578,0.1699,0.1788,0.2004,0.2008,0.2134,0.2227,0.23,0.2401,0.2338,0.2529,0.2578,0.2442,0.2466,0.2607,0.2626,0.2514,0,0,0,0,0,0,0.1338,0.1367,0.1366,0.134,0.1352,0.141,0.149,0.1623,0.1647,0.1874,0.1928,0.2087,0.219,0.232,0.23,0.2324,0.2288,0.2559,0.2553,0.2596,0.2614,0.2629,0.252,0,0,0,0,0]},{"header":{"parameterUnit":"m.s-1","parameterCategory":2,"la1":30.2991,"la2":30.254,"lo1":-89.0895,"lo2":-89.0444,"dy":0.0017,"dx":0.0017,"nx":28,"ny":28,"refTime":"2024-08-17T21:00:00:Z","depth":"4","parameterNumber":3,"parameterNumberName":"V-component_of_CURRENTS"},"data":[0,0,0,0,0,0,0,0,0,0,0,0,0,0,0,0,0,0,0,0,0,0,0,0,0,0,0,0,0,0,0,0,0,0,0,0,0,0,0,0,0,0,0,0,0,0,0,0,0,0,0,0,0,0,0,0,0,0,0.0098,0.0098,0,0.0075,0.0074,0.0074,0.0058,0.0058,0.0058,0.0058,0.0018,0.0017,0.0016,0,0,0,0,0,0,0,0,0,0,0,0,0,0.0085,0.0085,0.0098,0.0098,0.0097,0.0075,0.0074,0.0074,0.0058,0.0058,0.0058,0.0058,0.0018,0.0017,0.0016,0,0,0,0,0,0,0,0,0,0,0,0,0,0.0079,0.0085,0.0098,0.0087,0.0085,0.0075,0.0074,0.0074,0.0058,0.0058,0.0058,0.0058,0.0019,0.0017,0.0016,0.001,0,0,0.0012,0.0011,0,0,0,0,0,0,0,0,0.0079,0.0079,0.0089,0.0087,0.0086,0.0069,0.0055,0.0052,0.0058,0.0068,0.0058,0.0057,0.0034,0.0031,0.0027,0.0009,0.0007,0.0011,0.0011,0.001,0.001,0,0,0,0,0,0,0,0.008,0.008,0.0088,0.0088,0.0087,0.0068,0.0067,0.0054,0.0052,0.0067,0.0066,0.0064,0.0033,0.0029,0.0026,0.0006,0.0011,0.001,0.0009,0.0009,-0.0018,-0.0017,0,0,0,0,0,0,0.0085,0.0081,0.0089,0.0088,0.0082,0.0068,0.0068,0.0075,0.0052,0.0049,0.0064,0.0063,0.0031,0.0028,0.0025,0.0029,0.001,0.0009,0.0008,-0.0018,-0.0018,-0.0017,0,0,0,0,0,0,0.0085,0.0087,0.009,0.0083,0.0082,0.0069,0.0077,0.0074,0.0074,0.005,0.0046,0.0067,0.0031,0.0027,0.002,0.0027,0.0008,0.0007,-0.0018,-0.0018,-0.0017,0.003,0,0,0,0,0,0,0.0085,0.0087,0.0093,0.0084,0.0083,0.0092,0.0077,0.0074,0.0073,0.0071,0.0051,0.0047,0.003,0.0022,0.0019,0.0025,0.0006,-0.0018,-0.0018,-0.0018,0.0028,0.0032,0.0035,0,0,0,0,0,0.0085,0.0099,0.0094,0.0095,0.0092,0.0093,0.0091,0.008,0.0073,0.0078,0.0063,0.0048,0.0021,0.0022,0.0017,0.0023,-0.0018,-0.0018,-0.0018,0.0027,0.0031,0.0035,0,0,0,0,0,0,0.0095,0.0098,0.0093,0.0106,0.0102,0.009,0.0093,0.0085,0.0078,0.0076,0.0053,0.0048,0.0043,0.0026,0.0027,0.0015,-0.0002,-0.0003,0.0033,0.0037,0.004,0.006,0.0004,0,0,0,0,0,0.01,0.0113,0.0108,0.0118,0.0118,0.0106,0.0104,0.0098,0.0089,0.0086,0.0071,0.0054,0.004,0.0034,0.0019,0.0016,-0.0012,0.0014,0.0018,0.0021,0.0033,-0.001,-0.0009,-0.0016,-0.0016,-0.0016,0,0,0.0105,0.0109,0.0115,0.012,0.0115,0.0125,0.0105,0.0108,0.0117,0.0083,0.0089,0.0065,0.0041,0.0037,0.0033,0.0025,0.0007,0.0021,0.0024,0.0035,-0.0009,-0.0008,-0.0008,-0.0016,-0.0016,-0.0016,0,0,0.0126,0.0127,0.0144,0.0146,0.0146,0.0141,0.0145,0.0138,0.0135,0.0136,0.0112,0.0097,0.0077,0.0063,0.0052,0.0065,0.0025,0.0055,0.009,0.0048,0.0049,0.0049,0.001,0.0006,0.0058,0.0058,0.0058,0,0.013,0.0155,0.0148,0.0164,0.0173,0.0152,0.0174,0.0168,0.0159,0.0161,0.0145,0.0113,0.0092,0.0086,0.0091,0.0074,0.0042,0.0079,0.0053,0.0053,0.0052,0.0012,0.0007,0.006,0.006,0.006,0.0059,0,0.0164,0.0183,0.0194,0.0212,0.0218,0.0233,0.0227,0.0231,0.0222,0.0212,0.0203,0.0167,0.0151,0.0136,0.012,0.0106,0.0083,0.0061,0.0045,0.0056,0.0013,0.0007,0.0064,0.0063,0.0062,0.0061,0,0,0.0181,0.0213,0.0218,0.0241,0.0248,0.0263,0.0276,0.0287,0.0304,0.0273,0.0285,0.0249,0.0223,0.021,0.0177,0.0143,0.0107,0.0106,0.0103,0.0073,0.0012,0.0009,0.0002,0.0076,0.0075,0.0075,-0.0017,0,0.0212,0.026,0.0266,0.0314,0.034,0.0334,0.0356,0.0359,0.035,0.0353,0.0304,0.0301,0.0253,0.0249,0.0203,0.0135,0.0094,0.0134,0.0003,-0.0,-0.0,-0.0003,0.0073,-0.0021,-0.0023,-0.0024,-0.0024,0,0.0247,0.0278,0.0333,0.0382,0.0394,0.0419,0.0456,0.0475,0.0464,0.0454,0.0425,0.0384,0.0338,0.0293,0.0171,0.0196,0.0114,0.0051,0.0045,0.0026,-0.0013,-0.0034,-0.0036,-0.0035,-0.0034,-0.0033,-0.0032,0,0.0276,0.0329,0.0381,0.0397,0.0442,0.0471,0.0499,0.0508,0.0542,0.0524,0.0532,0.0453,0.0428,0.031,0.0175,0.0173,0.003,0.0007,-0.0076,-0.0078,-0.0069,-0.0068,-0.0081,-0.0081,-0.0081,-0.0081,-0.008,0,0.0311,0.0354,0.0405,0.0434,0.051,0.0523,0.0597,0.0606,0.0628,0.067,0.0594,0.0592,0.0431,0.0328,0.0193,0.0041,0.0037,-0.0066,-0.01,-0.0048,-0.0044,-0.0074,-0.0072,-0.0084,-0.0083,-0.0083,-0.0082,0,0.0336,0.0366,0.0434,0.0497,0.0529,0.0587,0.0677,0.0723,0.0733,0.0781,0.0783,0.0697,0.0567,0.0392,0.0199,0.0081,-0.0073,-0.0129,-0.0057,-0.0087,-0.0158,-0.0153,-0.0222,-0.0223,-0.0224,-0.0224,-0.0225,0,0.0353,0.0391,0.0487,0.0539,0.0575,0.0665,0.0729,0.0776,0.0824,0.0845,0.0864,0.0764,0.0682,0.0409,0.0214,-0.005,-0.0089,-0.0176,-0.0168,-0.0146,-0.0172,-0.0166,-0.0159,-0.0226,-0.0226,-0.0226,-0.0226,0,0.0385,0.0421,0.0478,0.0586,0.0669,0.0769,0.0858,0.0901,0.0954,0.0963,0.0938,0.0803,0.0653,0.0426,0.0218,0.0027,-0.0123,-0.0184,-0.0184,-0.0177,-0.0151,-0.0175,-0.0168,-0.0229,-0.0229,-0.0228,-0.0228,0,0.0412,0.0456,0.0534,0.0633,0.074,0.084,0.0887,0.0945,0.0999,0.1012,0.0999,0.0838,0.0744,0.0466,0.0272,0.0085,0.0039,-0.0029,-0.0037,-0.0037,0.0039,0.01,0.0075,0,0,0,0,0,0.0436,0.0487,0.0573,0.0685,0.0789,0.0856,0.096,0.0995,0.1041,0.1037,0.1025,0.0886,0.0619,0.05,0.0315,0.0243,-0.0009,0.0017,-0.0094,-0.0242,-0.0239,-0.0182,0,0,0,0,0,0,0.0453,0.053,0.0572,0.0713,0.0791,0.0915,0.0984,0.1014,0.1012,0.1022,0.0884,0.0831,0.0567,0.0727,0.0309,0.0252,0.0153,-0.0103,-0.0108,-0.0244,-0.0241,-0.0239,-0.018,0,0,0,0,0]}]]